,,PA_Meas_PMT16A,,PR_Meas_QMR101_102,,RH_Meas_QMH101,,SR_Meas_QMS101,,TA_Meas_QMH101,,GenWind,,GenWind,
time,status,PA,status,PR,status,RH,status,SR,status,TA,status,DirAvg,status,SpdAvg,
2010-12-23, 00:00:04,VALID,916.389,VALID,0,VALID,96.9622,VALID,0.107441,VALID,17.3246,VALID,57,VALID,0.420312,
2010-12-23, 00:01:04,VALID,916.366,VALID,0,VALID,96.7945,VALID,0,VALID,17.1297,VALID,57,VALID,0.404297,
2010-12-23, 00:02:04,VALID,916.378,VALID,0,VALID,96.4743,VALID,0,VALID,16.9154,VALID,57,VALID,0.434375,
2010-12-23, 00:03:04,VALID,916.396,VALID,0,VALID,96.4896,VALID,0,VALID,16.8387,VALID,57,VALID,0.384375,
2010-12-23, 00:04:04,VALID,916.376,VALID,0,VALID,96.8479,VALID,0,VALID,16.8764,VALID,57,VALID,0.0121094,
2010-12-23, 00:05:04,VALID,916.36,VALID,0,VALID,96.9775,VALID,0,VALID,16.9154,VALID,57,VALID,0,
2010-12-23, 00:06:04,VALID,916.372,VALID,0,VALID,97.1147,VALID,0.107441,VALID,16.9946,VALID,57,VALID,0,
2010-12-23, 00:07:04,VALID,916.337,VALID,0,VALID,97.1071,VALID,0,VALID,16.9738,VALID,57,VALID,0,
2010-12-23, 00:08:04,VALID,916.316,VALID,0,VALID,97.1147,VALID,0.107441,VALID,16.9933,VALID,57,VALID,0,
2010-12-23, 00:09:04,VALID,916.322,VALID,0,VALID,97.1909,VALID,0.107441,VALID,17.0128,VALID,57,VALID,0,
2010-12-23, 00:10:04,VALID,916.276,VALID,0,VALID,97.1757,VALID,0.107441,VALID,17.0323,VALID,57,VALID,0,
2010-12-23, 00:11:04,VALID,916.316,VALID,0,VALID,97.2367,VALID,0,VALID,17.1492,VALID,57,VALID,0,
2010-12-23, 00:12:04,VALID,916.302,VALID,0,VALID,97.2824,VALID,0,VALID,17.1882,VALID,57,VALID,0,
2010-12-23, 00:13:04,VALID,916.29,VALID,0,VALID,97.3129,VALID,0,VALID,17.2869,VALID,57,VALID,0,
2010-12-23, 00:14:04,VALID,916.316,VALID,0,VALID,97.3129,VALID,0.107441,VALID,17.3051,VALID,57,VALID,0,
2010-12-23, 00:15:04,VALID,916.303,VALID,0,VALID,97.3281,VALID,0.107441,VALID,17.3246,VALID,57,VALID,0,
2010-12-23, 00:16:04,VALID,916.274,VALID,0,VALID,97.2824,VALID,0,VALID,17.3246,VALID,57,VALID,0,
2010-12-23, 00:17:04,VALID,916.283,VALID,0,VALID,97.1909,VALID,0.107441,VALID,17.2661,VALID,57,VALID,0,
2010-12-23, 00:18:04,VALID,916.27,VALID,0,VALID,97.1452,VALID,0.107441,VALID,17.2271,VALID,57,VALID,0,
2010-12-23, 00:19:04,VALID,916.267,VALID,0,VALID,97.1604,VALID,0.107441,VALID,17.2077,VALID,57,VALID,0,
2010-12-23, 00:20:04,VALID,916.264,VALID,0,VALID,97.1757,VALID,0,VALID,17.1882,VALID,57,VALID,0.366016,
2010-12-23, 00:21:04,VALID,916.274,VALID,0,VALID,97.1909,VALID,0,VALID,17.2077,VALID,57,VALID,0,
2010-12-23, 00:22:04,VALID,916.265,VALID,0,VALID,97.1986,VALID,0.107441,VALID,17.2077,VALID,57,VALID,0,
2010-12-23, 00:23:04,VALID,916.247,VALID,0,VALID,97.1604,VALID,0.107441,VALID,17.2077,VALID,57,VALID,0,
2010-12-23, 00:24:04,VALID,916.2,VALID,0,VALID,96.9622,VALID,0,VALID,17.0726,VALID,57,VALID,0.358984,
2010-12-23, 00:25:04,VALID,916.209,VALID,0,VALID,96.947,VALID,0,VALID,17.0141,VALID,57,VALID,0.335938,
2010-12-23, 00:26:04,VALID,916.212,VALID,0,VALID,97.0385,VALID,0.107441,VALID,17.0141,VALID,57,VALID,0.0507813,
2010-12-23, 00:27:04,VALID,916.222,VALID,0,VALID,97.1376,VALID,0,VALID,17.0531,VALID,57,VALID,0.00195313,
2010-12-23, 00:28:04,VALID,916.207,VALID,0,VALID,97.1528,VALID,0,VALID,17.0726,VALID,57,VALID,0,
2010-12-23, 00:29:04,VALID,916.211,VALID,0,VALID,97.2138,VALID,0,VALID,17.1102,VALID,57,VALID,0,
2010-12-23, 00:30:04,VALID,916.225,VALID,0,VALID,97.1833,VALID,0,VALID,17.092,VALID,57,VALID,0,
2010-12-23, 00:31:04,VALID,916.19,VALID,0,VALID,97.069,VALID,0,VALID,17.0128,VALID,57,VALID,0.323047,
2010-12-23, 00:32:04,VALID,916.191,VALID,0,VALID,97.0156,VALID,0,VALID,16.9751,VALID,57,VALID,0.179688,
2010-12-23, 00:33:04,VALID,916.185,VALID,0,VALID,97.0613,VALID,0,VALID,16.9751,VALID,57,VALID,0.415625,
2010-12-23, 00:34:04,VALID,916.153,VALID,0,VALID,97.0918,VALID,0.107441,VALID,16.9738,VALID,57,VALID,0.298828,
2010-12-23, 00:35:04,VALID,916.128,VALID,0,VALID,97.2748,VALID,0.107441,VALID,17.17,VALID,57,VALID,0.411719,
2010-12-23, 00:36:04,VALID,916.144,VALID,0,VALID,97.351,VALID,0,VALID,17.3064,VALID,57,VALID,0.394922,
2010-12-23, 00:37:04,VALID,916.101,VALID,0,VALID,97.3281,VALID,0,VALID,17.3259,VALID,57,VALID,0.195313,
2010-12-23, 00:38:04,VALID,916.097,VALID,0,VALID,97.2519,VALID,0.107441,VALID,17.3051,VALID,57,VALID,0,
2010-12-23, 00:39:04,VALID,916.094,VALID,0,VALID,97.1986,VALID,0,VALID,17.2661,VALID,57,VALID,0,
2010-12-23, 00:40:04,VALID,916.11,VALID,0,VALID,97.2062,VALID,0,VALID,17.3051,VALID,57,VALID,0,
2010-12-23, 00:41:04,VALID,916.093,VALID,0,VALID,97.1833,VALID,0.107441,VALID,17.3259,VALID,57,VALID,0.198828,
2010-12-23, 00:42:04,VALID,916.094,VALID,0,VALID,97.069,VALID,0.107441,VALID,17.2466,VALID,57,VALID,0.538672,
2010-12-23, 00:43:04,VALID,916.052,VALID,0,VALID,97.0308,VALID,0,VALID,17.2271,VALID,57,VALID,0.523047,
2010-12-23, 00:44:04,VALID,916.051,VALID,0,VALID,97.008,VALID,0,VALID,17.2661,VALID,57,VALID,0.752344,
2010-12-23, 00:45:04,VALID,916.054,VALID,0,VALID,96.9012,VALID,0,VALID,17.2285,VALID,57,VALID,0.989453,
2010-12-23, 00:46:04,VALID,916.024,VALID,0,VALID,96.8555,VALID,0,VALID,17.2285,VALID,57,VALID,1.12695,
2010-12-23, 00:47:04,VALID,916,VALID,0,VALID,96.9241,VALID,0,VALID,17.2674,VALID,57,VALID,1.17734,
2010-12-23, 00:48:04,VALID,915.957,VALID,0,VALID,96.9394,VALID,0,VALID,17.2869,VALID,57,VALID,1.03984,
2010-12-23, 00:49:04,VALID,915.954,VALID,0,VALID,96.947,VALID,0,VALID,17.2674,VALID,57,VALID,1.2082,
2010-12-23, 00:50:04,VALID,915.945,VALID,0,VALID,96.9622,VALID,0,VALID,17.2869,VALID,100,VALID,1.15273,
2010-12-23, 00:51:04,VALID,915.955,VALID,0,VALID,96.9241,VALID,0,VALID,17.2674,VALID,100,VALID,0.983203,
2010-12-23, 00:52:04,VALID,915.939,VALID,0,VALID,96.9089,VALID,0,VALID,17.2479,VALID,100,VALID,0.978125,
2010-12-23, 00:53:04,VALID,915.896,VALID,0,VALID,96.886,VALID,0,VALID,17.209,VALID,100,VALID,0.955078,
2010-12-23, 00:54:04,VALID,915.88,VALID,0,VALID,96.9317,VALID,0,VALID,17.209,VALID,100,VALID,1.00859,
2010-12-23, 00:55:04,VALID,915.868,VALID,0,VALID,96.9851,VALID,0,VALID,17.209,VALID,100,VALID,0.648047,
2010-12-23, 00:56:04,VALID,915.856,VALID,0,VALID,96.947,VALID,0,VALID,17.1505,VALID,100,VALID,0.517969,
2010-12-23, 00:57:04,VALID,915.835,VALID,0,VALID,96.9775,VALID,0,VALID,17.131,VALID,100,VALID,0.4375,
2010-12-23, 00:58:04,VALID,915.835,VALID,0,VALID,96.9851,VALID,0,VALID,17.1115,VALID,100,VALID,0.260547,
2010-12-23, 00:59:04,VALID,915.847,VALID,0,VALID,97.0766,VALID,0,VALID,17.131,VALID,100,VALID,0.896094,
2010-12-23, 01:00:04,VALID,915.825,VALID,0,VALID,97.1452,VALID,0,VALID,17.17,VALID,100,VALID,0.611719,
2010-12-23, 01:01:04,VALID,915.783,VALID,0,VALID,97.1452,VALID,0,VALID,17.1687,VALID,100,VALID,0.544922,
2010-12-23, 01:02:04,VALID,915.806,VALID,0,VALID,97.1986,VALID,0,VALID,17.2479,VALID,100,VALID,0.854688,
2010-12-23, 01:03:04,VALID,915.782,VALID,0,VALID,97.229,VALID,0.107441,VALID,17.2869,VALID,100,VALID,0.4875,
2010-12-23, 01:04:04,VALID,915.756,VALID,0,VALID,97.2748,VALID,0,VALID,17.3064,VALID,100,VALID,0.746875,
2010-12-23, 01:05:04,VALID,915.756,VALID,0,VALID,97.3129,VALID,0,VALID,17.3649,VALID,100,VALID,1.04336,
2010-12-23, 01:06:04,VALID,915.761,VALID,0,VALID,97.2977,VALID,0,VALID,17.3649,VALID,100,VALID,0.907031,
2010-12-23, 01:07:04,VALID,915.76,VALID,0,VALID,97.29,VALID,0,VALID,17.3649,VALID,100,VALID,0.785547,
2010-12-23, 01:08:04,VALID,915.75,VALID,0,VALID,97.29,VALID,0,VALID,17.3454,VALID,100,VALID,0.616797,
2010-12-23, 01:09:04,VALID,915.758,VALID,0,VALID,97.2672,VALID,0,VALID,17.3246,VALID,100,VALID,0.685938,
2010-12-23, 01:10:04,VALID,915.767,VALID,0,VALID,97.2748,VALID,0,VALID,17.3259,VALID,100,VALID,0.569922,
2010-12-23, 01:11:04,VALID,915.748,VALID,0,VALID,97.3053,VALID,0,VALID,17.3259,VALID,100,VALID,0.986719,
2010-12-23, 01:12:04,VALID,915.788,VALID,0,VALID,97.3358,VALID,0.107441,VALID,17.3246,VALID,100,VALID,0.857813,
2010-12-23, 01:13:04,VALID,915.797,VALID,0,VALID,97.3205,VALID,0,VALID,17.3259,VALID,100,VALID,0.714844,
2010-12-23, 01:14:04,VALID,915.769,VALID,0,VALID,97.3281,VALID,0,VALID,17.2856,VALID,100,VALID,0.767187,
2010-12-23, 01:15:04,VALID,915.783,VALID,0,VALID,97.3434,VALID,0,VALID,17.2856,VALID,100,VALID,0.666406,
2010-12-23, 01:16:04,VALID,915.776,VALID,0,VALID,97.3434,VALID,0,VALID,17.3064,VALID,100,VALID,0.931641,
2010-12-23, 01:17:04,VALID,915.754,VALID,0,VALID,97.3586,VALID,0,VALID,17.3064,VALID,100,VALID,0.645312,
2010-12-23, 01:18:04,VALID,915.769,VALID,0,VALID,97.3815,VALID,0,VALID,17.3259,VALID,100,VALID,0.383984,
2010-12-23, 01:19:04,VALID,915.714,VALID,0,VALID,97.3891,VALID,0,VALID,17.3441,VALID,100,VALID,0.639453,
2010-12-23, 01:20:04,VALID,915.716,VALID,0,VALID,97.3891,VALID,0,VALID,17.3051,VALID,100,VALID,0.408594,
2010-12-23, 01:21:04,VALID,915.695,VALID,0,VALID,97.4349,VALID,0,VALID,17.3441,VALID,100,VALID,0.770312,
2010-12-23, 01:22:04,VALID,915.685,VALID,0,VALID,97.4273,VALID,0,VALID,17.3844,VALID,100,VALID,0.665625,
2010-12-23, 01:23:04,VALID,915.694,VALID,0,VALID,97.412,VALID,0,VALID,17.3454,VALID,100,VALID,0.758984,
2010-12-23, 01:24:04,VALID,915.657,VALID,0,VALID,97.4273,VALID,0,VALID,17.3259,VALID,100,VALID,0.516406,
2010-12-23, 01:25:04,VALID,915.689,VALID,0,VALID,97.4044,VALID,0,VALID,17.3259,VALID,100,VALID,0.318359,
2010-12-23, 01:26:04,VALID,915.654,VALID,0,VALID,97.4273,VALID,0,VALID,17.3051,VALID,100,VALID,0.462891,
2010-12-23, 01:27:04,VALID,915.642,VALID,0,VALID,97.4577,VALID,0,VALID,17.3454,VALID,100,VALID,0.580078,
2010-12-23, 01:28:04,VALID,915.653,VALID,0,VALID,97.4654,VALID,0,VALID,17.3649,VALID,100,VALID,0.676172,
2010-12-23, 01:29:04,VALID,915.605,VALID,0,VALID,97.3739,VALID,0,VALID,17.3259,VALID,100,VALID,0.588281,
2010-12-23, 01:30:04,VALID,915.611,VALID,0,VALID,97.351,VALID,0,VALID,17.2271,VALID,100,VALID,0.557813,
2010-12-23, 01:31:04,VALID,915.639,VALID,0,VALID,97.4196,VALID,0,VALID,17.2271,VALID,100,VALID,0.560938,
2010-12-23, 01:32:04,VALID,915.605,VALID,0,VALID,97.4577,VALID,0,VALID,17.2674,VALID,100,VALID,0.677734,
2010-12-23, 01:33:04,VALID,915.614,VALID,0,VALID,97.4959,VALID,0,VALID,17.2869,VALID,100,VALID,0.380469,
2010-12-23, 01:34:04,VALID,915.619,VALID,0,VALID,97.5264,VALID,0,VALID,17.3259,VALID,100,VALID,0,
2010-12-23, 01:35:04,VALID,915.617,VALID,0,VALID,97.5264,VALID,0,VALID,17.3441,VALID,100,VALID,0.294531,
2010-12-23, 01:36:04,VALID,915.593,VALID,0,VALID,97.5035,VALID,0,VALID,17.3844,VALID,100,VALID,0.190234,
2010-12-23, 01:37:04,VALID,915.599,VALID,0,VALID,97.4044,VALID,0,VALID,17.3649,VALID,100,VALID,0,
2010-12-23, 01:38:04,VALID,915.587,VALID,0,VALID,97.3129,VALID,0,VALID,17.2271,VALID,100,VALID,0,
2010-12-23, 01:39:04,VALID,915.589,VALID,0,VALID,97.351,VALID,0,VALID,17.209,VALID,100,VALID,0,
2010-12-23, 01:40:04,VALID,915.572,VALID,0,VALID,97.3739,VALID,0,VALID,17.1895,VALID,100,VALID,0,
2010-12-23, 01:41:04,VALID,915.575,VALID,0,VALID,97.3358,VALID,0,VALID,17.131,VALID,100,VALID,0,
2010-12-23, 01:42:04,VALID,915.563,VALID,0,VALID,97.4349,VALID,0.107441,VALID,17.1102,VALID,100,VALID,0,
2010-12-23, 01:43:04,VALID,915.529,VALID,0,VALID,97.6026,VALID,0,VALID,17.209,VALID,100,VALID,0,
2010-12-23, 01:44:04,VALID,915.542,VALID,0,VALID,97.6178,VALID,0,VALID,17.2869,VALID,100,VALID,0,
2010-12-23, 01:45:04,VALID,915.478,VALID,0,VALID,97.6102,VALID,0,VALID,17.3259,VALID,100,VALID,0,
2010-12-23, 01:46:04,VALID,915.465,VALID,0,VALID,97.6026,VALID,0,VALID,17.3844,VALID,100,VALID,0,
2010-12-23, 01:47:04,VALID,915.432,VALID,0,VALID,97.5569,VALID,0,VALID,17.3844,VALID,100,VALID,0,
2010-12-23, 01:48:04,VALID,915.427,VALID,0,VALID,97.5187,VALID,0.107441,VALID,17.3635,VALID,100,VALID,0,
2010-12-23, 01:49:04,VALID,915.399,VALID,0,VALID,97.5111,VALID,0,VALID,17.3441,VALID,100,VALID,0,
2010-12-23, 01:50:04,VALID,915.391,VALID,0,VALID,97.5187,VALID,0,VALID,17.3649,VALID,100,VALID,0.0183594,
2010-12-23, 01:51:04,VALID,915.388,VALID,0,VALID,97.5111,VALID,0,VALID,17.3246,VALID,100,VALID,0.398047,
2010-12-23, 01:52:04,VALID,915.387,VALID,0,VALID,97.5264,VALID,0,VALID,17.383,VALID,100,VALID,0.325,
2010-12-23, 01:53:04,VALID,915.368,VALID,0,VALID,97.5569,VALID,0,VALID,17.4233,VALID,100,VALID,0.218359,
2010-12-23, 01:54:04,VALID,915.406,VALID,0,VALID,97.5797,VALID,0,VALID,17.4415,VALID,100,VALID,0.220313,
2010-12-23, 01:55:04,VALID,915.365,VALID,0,VALID,97.5416,VALID,0,VALID,17.461,VALID,100,VALID,0.290625,
2010-12-23, 01:56:04,VALID,915.363,VALID,0,VALID,97.5035,VALID,0,VALID,17.4415,VALID,100,VALID,0.276953,
2010-12-23, 01:57:04,VALID,915.346,VALID,0,VALID,97.4959,VALID,0,VALID,17.4233,VALID,100,VALID,0.327734,
2010-12-23, 01:58:04,VALID,915.387,VALID,0,VALID,97.4577,VALID,0,VALID,17.3844,VALID,100,VALID,0.381641,
2010-12-23, 01:59:04,VALID,915.38,VALID,0,VALID,97.4273,VALID,0,VALID,17.3259,VALID,100,VALID,0.242578,
2010-12-23, 02:00:04,VALID,915.377,VALID,0,VALID,97.4273,VALID,0,VALID,17.3259,VALID,100,VALID,0.375391,
2010-12-23, 02:01:04,VALID,915.403,VALID,0,VALID,97.4501,VALID,0,VALID,17.3064,VALID,100,VALID,0.452734,
2010-12-23, 02:02:04,VALID,915.4,VALID,0,VALID,97.473,VALID,0,VALID,17.3259,VALID,100,VALID,0.296875,
2010-12-23, 02:03:04,VALID,915.379,VALID,0,VALID,97.5111,VALID,0,VALID,17.3454,VALID,100,VALID,0.320313,
2010-12-23, 02:04:04,VALID,915.395,VALID,0,VALID,97.473,VALID,0.107441,VALID,17.3246,VALID,100,VALID,0.0277344,
2010-12-23, 02:05:04,VALID,915.371,VALID,0,VALID,97.3129,VALID,0.107441,VALID,17.2479,VALID,100,VALID,0.161719,
2010-12-23, 02:06:04,VALID,915.375,VALID,0,VALID,97.2367,VALID,0.107441,VALID,17.131,VALID,100,VALID,0.467578,
2010-12-23, 02:07:04,VALID,915.377,VALID,0,VALID,97.4425,VALID,0,VALID,17.2077,VALID,100,VALID,0.485547,
2010-12-23, 02:08:04,VALID,915.401,VALID,0,VALID,97.5416,VALID,0.107441,VALID,17.2661,VALID,100,VALID,0.579687,
2010-12-23, 02:09:04,VALID,915.397,VALID,0,VALID,97.5492,VALID,0,VALID,17.2869,VALID,100,VALID,0.226172,
2010-12-23, 02:10:04,VALID,915.387,VALID,0,VALID,97.5264,VALID,0,VALID,17.2856,VALID,100,VALID,0.357031,
2010-12-23, 02:11:04,VALID,915.422,VALID,0,VALID,97.5569,VALID,0.107441,VALID,17.3441,VALID,100,VALID,0.482031,
2010-12-23, 02:12:04,VALID,915.42,VALID,0,VALID,97.595,VALID,0,VALID,17.3844,VALID,100,VALID,0.311328,
2010-12-23, 02:13:04,VALID,915.43,VALID,0,VALID,97.5569,VALID,0,VALID,17.3635,VALID,100,VALID,0.382813,
2010-12-23, 02:14:04,VALID,915.415,VALID,0,VALID,97.5187,VALID,0,VALID,17.3844,VALID,100,VALID,0.336328,
2010-12-23, 02:15:04,VALID,915.429,VALID,0,VALID,97.5035,VALID,0,VALID,17.3635,VALID,100,VALID,0.435547,
2010-12-23, 02:16:04,VALID,915.429,VALID,0,VALID,97.5264,VALID,0,VALID,17.383,VALID,100,VALID,0.486719,
2010-12-23, 02:17:04,VALID,915.435,VALID,0,VALID,97.5187,VALID,0,VALID,17.4025,VALID,100,VALID,0.696875,
2010-12-23, 02:18:04,VALID,915.453,VALID,0,VALID,97.5645,VALID,0.107441,VALID,17.4623,VALID,100,VALID,0.820313,
2010-12-23, 02:19:04,VALID,915.441,VALID,0,VALID,97.4654,VALID,0,VALID,17.422,VALID,100,VALID,0.64375,
2010-12-23, 02:20:04,VALID,915.469,VALID,0,VALID,97.4501,VALID,0,VALID,17.3844,VALID,100,VALID,0.820703,
2010-12-23, 02:21:04,VALID,915.453,VALID,0,VALID,97.2672,VALID,0,VALID,17.2466,VALID,100,VALID,0.863281,
2010-12-23, 02:22:04,VALID,915.439,VALID,0,VALID,97.4044,VALID,0,VALID,17.2479,VALID,100,VALID,0.996484,
2010-12-23, 02:23:04,VALID,915.449,VALID,0,VALID,97.5569,VALID,0.107441,VALID,17.3441,VALID,100,VALID,0.611719,
2010-12-23, 02:24:04,VALID,915.417,VALID,0,VALID,97.5264,VALID,0,VALID,17.3649,VALID,100,VALID,0,
2010-12-23, 02:25:04,VALID,915.453,VALID,0,VALID,97.5111,VALID,0,VALID,17.3649,VALID,100,VALID,0,
2010-12-23, 02:26:04,VALID,915.43,VALID,0,VALID,97.4959,VALID,0,VALID,17.3454,VALID,100,VALID,0.276563,
2010-12-23, 02:27:04,VALID,915.43,VALID,0,VALID,97.4501,VALID,0,VALID,17.3051,VALID,100,VALID,0.392188,
2010-12-23, 02:28:04,VALID,915.447,VALID,0,VALID,97.4959,VALID,0,VALID,17.3454,VALID,100,VALID,0.460938,
2010-12-23, 02:29:04,VALID,915.404,VALID,0,VALID,97.5264,VALID,0,VALID,17.4038,VALID,100,VALID,0.496875,
2010-12-23, 02:30:04,VALID,915.384,VALID,0,VALID,97.5035,VALID,0,VALID,17.4233,VALID,100,VALID,0.441797,
2010-12-23, 02:31:04,VALID,915.386,VALID,0,VALID,97.473,VALID,0,VALID,17.383,VALID,100,VALID,0.726953,
2010-12-23, 02:32:04,VALID,915.391,VALID,0,VALID,97.4501,VALID,0,VALID,17.3649,VALID,100,VALID,0.670703,
2010-12-23, 02:33:04,VALID,915.35,VALID,0,VALID,97.4044,VALID,0,VALID,17.3454,VALID,100,VALID,0.539453,
2010-12-23, 02:34:04,VALID,915.342,VALID,0,VALID,97.4425,VALID,0,VALID,17.3454,VALID,100,VALID,0.828906,
2010-12-23, 02:35:04,VALID,915.341,VALID,0,VALID,97.4349,VALID,0,VALID,17.3259,VALID,100,VALID,0.960938,
2010-12-23, 02:36:04,VALID,915.297,VALID,0,VALID,97.4654,VALID,0,VALID,17.3454,VALID,100,VALID,0.733203,
2010-12-23, 02:37:04,VALID,915.285,VALID,0,VALID,97.4806,VALID,0,VALID,17.3454,VALID,100,VALID,0.426953,
2010-12-23, 02:38:04,VALID,915.277,VALID,0,VALID,97.3891,VALID,0.107441,VALID,17.2856,VALID,100,VALID,0.166797,
2010-12-23, 02:39:04,VALID,915.291,VALID,0,VALID,97.3053,VALID,0,VALID,17.209,VALID,100,VALID,0.340625,
2010-12-23, 02:40:04,VALID,915.29,VALID,0,VALID,97.3891,VALID,0,VALID,17.209,VALID,100,VALID,0.770703,
2010-12-23, 02:41:04,VALID,915.271,VALID,0,VALID,97.4044,VALID,0,VALID,17.209,VALID,100,VALID,0.866406,
2010-12-23, 02:42:04,VALID,915.241,VALID,0,VALID,97.4882,VALID,0,VALID,17.2271,VALID,100,VALID,0.886328,
2010-12-23, 02:43:04,VALID,915.248,VALID,0,VALID,97.4959,VALID,0,VALID,17.2674,VALID,100,VALID,0.523438,
2010-12-23, 02:44:04,VALID,915.25,VALID,0,VALID,97.5187,VALID,0,VALID,17.2661,VALID,100,VALID,0.372656,
2010-12-23, 02:45:04,VALID,915.248,VALID,0,VALID,97.5492,VALID,0,VALID,17.3454,VALID,100,VALID,0.375,
2010-12-23, 02:46:04,VALID,915.232,VALID,0,VALID,97.5645,VALID,0,VALID,17.3844,VALID,100,VALID,0,
2010-12-23, 02:47:04,VALID,915.223,VALID,0,VALID,97.534,VALID,0.107441,VALID,17.4038,VALID,100,VALID,0,
2010-12-23, 02:48:04,VALID,915.222,VALID,0,VALID,97.2748,VALID,0,VALID,17.2856,VALID,100,VALID,0,
2010-12-23, 02:49:04,VALID,915.217,VALID,0,VALID,97.2519,VALID,0,VALID,17.209,VALID,100,VALID,0,
2010-12-23, 02:50:04,VALID,915.221,VALID,0,VALID,97.2977,VALID,0.107441,VALID,17.1492,VALID,100,VALID,0,
2010-12-23, 02:51:04,VALID,915.18,VALID,0,VALID,97.3815,VALID,0.107441,VALID,17.1687,VALID,100,VALID,0.166016,
2010-12-23, 02:52:04,VALID,915.206,VALID,0,VALID,97.4044,VALID,0,VALID,17.1882,VALID,100,VALID,0,
2010-12-23, 02:53:05,VALID,915.185,VALID,0,VALID,97.3815,VALID,0,VALID,17.1882,VALID,100,VALID,0.0222656,
2010-12-23, 02:54:05,VALID,915.147,VALID,0,VALID,97.3968,VALID,0.107441,VALID,17.1882,VALID,100,VALID,0.338281,
2010-12-23, 02:55:05,VALID,915.178,VALID,0,VALID,97.3663,VALID,0,VALID,17.2285,VALID,100,VALID,0.348437,
2010-12-23, 02:56:05,VALID,915.149,VALID,0,VALID,97.3891,VALID,0,VALID,17.2077,VALID,100,VALID,0.422656,
2010-12-23, 02:57:05,VALID,915.142,VALID,0,VALID,97.3815,VALID,0.107441,VALID,17.2271,VALID,100,VALID,0.405859,
2010-12-23, 02:58:05,VALID,915.15,VALID,0,VALID,97.4273,VALID,0,VALID,17.2674,VALID,100,VALID,0.819922,
2010-12-23, 02:59:05,VALID,915.157,VALID,0,VALID,97.5187,VALID,0,VALID,17.3635,VALID,100,VALID,0.710938,
2010-12-23, 03:00:05,VALID,915.139,VALID,0,VALID,97.4882,VALID,0.107441,VALID,17.383,VALID,100,VALID,0.116016,
2010-12-23, 03:01:05,VALID,915.174,VALID,0,VALID,97.3968,VALID,0,VALID,17.3441,VALID,100,VALID,0.335547,
2010-12-23, 03:02:05,VALID,915.15,VALID,0,VALID,97.351,VALID,0.107441,VALID,17.3246,VALID,100,VALID,0.480469,
2010-12-23, 03:03:05,VALID,915.144,VALID,0,VALID,97.3434,VALID,0,VALID,17.3441,VALID,100,VALID,0.459375,
2010-12-23, 03:04:05,VALID,915.109,VALID,0,VALID,97.3663,VALID,0,VALID,17.3441,VALID,100,VALID,0.766016,
2010-12-23, 03:05:05,VALID,915.134,VALID,0,VALID,97.3205,VALID,0,VALID,17.3649,VALID,100,VALID,0.868359,
2010-12-23, 03:06:05,VALID,915.098,VALID,0,VALID,97.2977,VALID,0,VALID,17.3246,VALID,100,VALID,0.922266,
2010-12-23, 03:07:05,VALID,915.099,VALID,0,VALID,97.2519,VALID,0,VALID,17.2869,VALID,100,VALID,0.748438,
2010-12-23, 03:08:05,VALID,915.085,VALID,0,VALID,97.2519,VALID,0.107441,VALID,17.2869,VALID,100,VALID,0.4375,
2010-12-23, 03:09:05,VALID,915.085,VALID,0,VALID,97.2443,VALID,0,VALID,17.2674,VALID,100,VALID,0.451562,
2010-12-23, 03:10:05,VALID,915.1,VALID,0,VALID,97.1986,VALID,0,VALID,17.2285,VALID,100,VALID,0.548828,
2010-12-23, 03:11:05,VALID,915.083,VALID,0,VALID,97.2367,VALID,0,VALID,17.2271,VALID,100,VALID,0.892969,
2010-12-23, 03:12:05,VALID,915.084,VALID,0,VALID,97.2519,VALID,0.107441,VALID,17.2077,VALID,100,VALID,0.939453,
2010-12-23, 03:13:05,VALID,915.065,VALID,0,VALID,97.1986,VALID,0,VALID,17.1882,VALID,100,VALID,0.937109,
2010-12-23, 03:14:05,VALID,915.056,VALID,0,VALID,97.1986,VALID,0,VALID,17.1882,VALID,100,VALID,0.626172,
2010-12-23, 03:15:05,VALID,915.078,VALID,0,VALID,97.1833,VALID,0,VALID,17.1492,VALID,100,VALID,0.592188,
2010-12-23, 03:16:05,VALID,915.071,VALID,0,VALID,97.1528,VALID,0,VALID,17.131,VALID,100,VALID,0.410156,
2010-12-23, 03:17:05,VALID,915.082,VALID,0,VALID,97.0766,VALID,0,VALID,17.0518,VALID,100,VALID,0.565234,
2010-12-23, 03:18:05,VALID,915.041,VALID,0,VALID,96.9546,VALID,0,VALID,16.9751,VALID,100,VALID,0.537109,
2010-12-23, 03:19:05,VALID,915.049,VALID,0,VALID,97.0766,VALID,0.107441,VALID,16.9738,VALID,100,VALID,0.880469,
2010-12-23, 03:20:05,VALID,915.045,VALID,0,VALID,97.0766,VALID,0,VALID,16.9946,VALID,100,VALID,0.664844,
2010-12-23, 03:21:05,VALID,915.035,VALID,0,VALID,97.1299,VALID,0,VALID,16.9933,VALID,100,VALID,0.865625,
2010-12-23, 03:22:05,VALID,915.03,VALID,0,VALID,97.1604,VALID,0.107441,VALID,16.9933,VALID,100,VALID,1.01836,
2010-12-23, 03:23:05,VALID,915.037,VALID,0,VALID,97.1909,VALID,0.107441,VALID,17.0323,VALID,100,VALID,1.0832,
2010-12-23, 03:24:05,VALID,915.023,VALID,0,VALID,97.1986,VALID,0,VALID,17.0323,VALID,100,VALID,0.932031,
2010-12-23, 03:25:05,VALID,914.981,VALID,0,VALID,97.2519,VALID,0,VALID,17.131,VALID,100,VALID,0.994141,
2010-12-23, 03:26:05,VALID,915.01,VALID,0,VALID,97.3358,VALID,0,VALID,17.209,VALID,100,VALID,0.621875,
2010-12-23, 03:27:05,VALID,915.001,VALID,0,VALID,97.2977,VALID,0,VALID,17.209,VALID,100,VALID,0.867188,
2010-12-23, 03:28:05,VALID,914.998,VALID,0,VALID,97.2443,VALID,0,VALID,17.209,VALID,100,VALID,0.4875,
2010-12-23, 03:29:05,VALID,914.982,VALID,0,VALID,97.1452,VALID,0,VALID,17.1505,VALID,100,VALID,0.133203,
2010-12-23, 03:30:05,VALID,914.984,VALID,0,VALID,97.1299,VALID,0.107441,VALID,17.1115,VALID,100,VALID,0.577344,
2010-12-23, 03:31:05,VALID,914.985,VALID,0,VALID,97.1681,VALID,0,VALID,17.1102,VALID,100,VALID,0,
2010-12-23, 03:32:05,VALID,914.971,VALID,0,VALID,97.0537,VALID,0.107441,VALID,17.0726,VALID,100,VALID,0.0972656,
2010-12-23, 03:33:05,VALID,914.977,VALID,0,VALID,97.0766,VALID,0,VALID,17.0726,VALID,100,VALID,0.472266,
2010-12-23, 03:34:05,VALID,914.955,VALID,0,VALID,97.0308,VALID,0,VALID,17.0336,VALID,100,VALID,0.185156,
2010-12-23, 03:35:05,VALID,914.948,VALID,0,VALID,97.0766,VALID,0,VALID,17.0323,VALID,100,VALID,0.09375,
2010-12-23, 03:36:05,VALID,914.924,VALID,0,VALID,97.1147,VALID,0,VALID,17.0531,VALID,100,VALID,0.136328,
2010-12-23, 03:37:05,VALID,914.898,VALID,0,VALID,97.1376,VALID,0.107441,VALID,17.1115,VALID,100,VALID,0.405859,
2010-12-23, 03:38:05,VALID,914.911,VALID,0,VALID,97.1452,VALID,0,VALID,17.1102,VALID,100,VALID,0.132422,
2010-12-23, 03:39:05,VALID,914.878,VALID,0,VALID,97.1147,VALID,0,VALID,17.0907,VALID,100,VALID,0.0078125,
2010-12-23, 03:40:05,VALID,914.885,VALID,0,VALID,97.0537,VALID,0.107441,VALID,17.092,VALID,100,VALID,0,
2010-12-23, 03:41:05,VALID,914.879,VALID,0,VALID,97.0842,VALID,0.107441,VALID,17.0713,VALID,100,VALID,0.0121094,
2010-12-23, 03:42:05,VALID,914.878,VALID,0,VALID,97.069,VALID,0.107441,VALID,17.092,VALID,100,VALID,0.0417969,
2010-12-23, 03:43:05,VALID,914.888,VALID,0,VALID,97.0613,VALID,0.107441,VALID,17.0713,VALID,100,VALID,0,
2010-12-23, 03:44:05,VALID,914.886,VALID,0,VALID,97.0156,VALID,0,VALID,17.0531,VALID,100,VALID,0.108594,
2010-12-23, 03:45:05,VALID,914.88,VALID,0,VALID,97.0842,VALID,0,VALID,17.0726,VALID,100,VALID,0,